Location: Newark
(5.5500°N, 0.2500°W)
Time: 18:07:49
(UTC+00:00)

Envisat - Visible Passes

Search period start: 15 September 2019 00:00
Search period end: 25 September 2019 00:00
Orbit: 764 x 766 km, 98.1° (Epoch: 15 September)

Date Brightness Start Highest point End Pass type
(mag) Time Alt. Az. Time Alt. Az. Time Alt. Az.
15 Sep 4.1 18:59:22 10° S 19:04:12 46° WSW 19:09:02 10° NNW visible
16 Sep 3.0 18:22:33 10° SSE 18:27:33 61° ENE 18:32:31 10° N visible
17 Sep 5.4 19:25:48 10° SSW 19:29:40 22° W 19:33:32 10° NW visible
18 Sep 3.5 18:47:58 10° S 18:52:59 63° WSW 18:57:59 10° NNW visible
19 Sep 3.3 18:11:31 10° SSE 18:16:20 45° ENE 18:21:07 10° N visible
20 Sep 4.9 19:14:03 10° SSW 19:18:26 30° WSW 19:22:49 10° NW visible
21 Sep 3.0 18:36:40 10° S 18:41:45 86° W 18:46:49 10° NNW visible
22 Sep 6.0 19:41:14 10° SW 19:43:53 14° W 19:46:32 10° WNW visible
23 Sep 4.4 19:02:28 10° S 19:07:12 40° WSW 19:11:55 10° NNW visible
24 Sep 2.9 18:25:29 10° SSE 18:30:31 70° ENE 18:35:33 10° N visible
